Weather History for KVER - January, 2014

Change the Weather History Date:

Tuesday, January 7, 2014

  Actual Average Record
Temperature  
Mean Temperature 16 °F -  
Max Temperature 36 °F 35 °F 56 °F (1961)
Min Temperature -5 °F 16 °F -11 °F (1968)
Degree Days  
Heating Degree Days 50    
Moisture  
Dew Point 3 °F    
Average Humidity 56    
Maximum Humidity 71    
Minimum Humidity 36    
Precipitation  
Precipitation 0.00 in - - ()
Sea Level Pressure  
Sea Level Pressure 30.24 in    
Wind  
Wind Speed 6 mph (SSW)    
Max Wind Speed 12 mph    
Max Gust Speed 16 mph    
Visibility 10 miles    
Events      
Averages and records for this station are not official NWS values.
T = Trace of Precipitation, MM = Missing Value Source: NWS Daily Summary

Daily Weather History Graph

Daily Weather History Graph

Search for Another Location

Airport or City:

Trip Planner

Search our weather history database for the weather conditions in past years. The results will help you decide how hot, cold, wet, or windy it might be!

Date:

Astronomy

Jan. 07, 2014 Rise Set
Actual Time 7:29 AM CST 5:04 PM CST
Civil Twilight 7:00 AM CST 5:34 PM CST
Nautical Twilight 6:26 AM CST 6:07 PM CST
Astronomical Twilight 5:54 AM CST 6:39 PM CST
Moon 11:22 AM CST (1/7) No Moon Set
Length of Visible Light 10h 34m
Length of Day
9h 35m
Waxing Crescent, 46% of the Moon is Illuminated
Jan 7
Waxing Crescent
Jan 7
First Quarter
Jan 15
Full
Jan 23
Last Quarter
Jan 30
New

Hourly Weather History & Observations

Time (CST) Temp. Windchill Dew Point Humidity Pressure Visibility Wind Dir Wind Speed Gust Speed Precip Events Conditions
12:15 AM -5.8 °F -16.7 °F -14.8 °F 65% 30.42 in 10.0 mi South 4.6 mph - N/A   Clear
12:35 AM -5.6 °F -18.2 °F -14.6 °F 65% 30.41 in 10.0 mi SSW 5.8 mph - N/A   Clear
12:55 AM -4.7 °F -15.4 °F -14.1 °F 64% 30.42 in 10.0 mi South 4.6 mph - N/A   Clear
1:15 AM -4.2 °F -16.5 °F -13.5 °F 64% 30.41 in 10.0 mi SSW 5.8 mph - N/A   Clear
1:35 AM -3.5 °F -13.9 °F -13.2 °F 63% 30.42 in 10.0 mi SW 4.6 mph - N/A   Clear
1:55 AM -3.5 °F -15.7 °F -13.0 °F 64% 30.41 in 10.0 mi SSW 5.8 mph - N/A   Clear
2:15 AM -2.7 °F -16.2 °F -12.5 °F 63% 30.41 in 10.0 mi SSW 6.9 mph - N/A   Clear
2:35 AM -2.0 °F -12.2 °F -11.7 °F 63% 30.41 in 10.0 mi SW 4.6 mph - N/A   Clear
2:55 AM -1.8 °F -12.0 °F -11.6 °F 63% 30.42 in 10.0 mi SSW 4.6 mph - N/A   Clear
3:15 AM -1.8 °F -12.0 °F -11.2 °F 64% 30.41 in 10.0 mi SSW 4.6 mph - N/A   Clear
3:35 AM -2.0 °F -12.2 °F -11.2 °F 65% 30.39 in 10.0 mi South 4.6 mph - N/A   Clear
3:55 AM -2.6 °F -14.6 °F -10.8 °F 68% 30.37 in 10.0 mi South 5.8 mph - N/A   Clear
4:15 AM -3.1 °F -15.2 °F -11.0 °F 69% 30.36 in 10.0 mi SSE 5.8 mph - N/A   Clear
4:35 AM -3.1 °F -15.2 °F -10.8 °F 70% 30.36 in 10.0 mi South 5.8 mph - N/A   Clear
4:55 AM -3.1 °F -16.7 °F -10.7 °F 70% 30.35 in 10.0 mi South 6.9 mph - N/A   Clear
5:15 AM -2.7 °F -14.8 °F -10.1 °F 71% 30.35 in 10.0 mi South 5.8 mph - N/A   Clear
5:35 AM -1.3 °F -13.1 °F -9.9 °F 67% 30.36 in 10.0 mi SSW 5.8 mph - N/A   Clear
5:55 AM -0.0 °F -9.9 °F -9.8 °F 64% 30.35 in 10.0 mi South 4.6 mph - N/A   Mostly Cloudy
6:15 AM 2.1 °F -5.4 °F -8.3 °F 62% 30.35 in 10.0 mi South 3.5 mph - N/A   Overcast
6:35 AM 2.8 °F -8.2 °F -7.4 °F 62% 30.34 in 10.0 mi South 5.8 mph - N/A   Mostly Cloudy
6:55 AM 1.6 °F -9.7 °F -8.0 °F 64% 30.33 in 10.0 mi SSE 5.8 mph - N/A   Clear
7:15 AM 0.7 °F -13.3 °F -8.1 °F 66% 30.33 in 10.0 mi SSE 8.1 mph - N/A   Scattered Clouds
7:35 AM 2.3 °F -12.4 °F -7.2 °F 64% 30.32 in 10.0 mi South 9.2 mph - N/A   Overcast
7:55 AM 3.2 °F -11.3 °F -6.7 °F 63% 30.31 in 10.0 mi South 9.2 mph - N/A   Overcast
8:15 AM 4.3 °F -9.0 °F -6.3 °F 61% 30.31 in 10.0 mi South 8.1 mph - N/A   Overcast
8:35 AM 5.7 °F -8.2 °F -5.8 °F 59% 30.29 in 10.0 mi SSE 9.2 mph - N/A   Overcast
8:55 AM 6.6 °F -8.0 °F -5.3 °F 58% 30.28 in 10.0 mi SSE 10.4 mph - N/A   Overcast
9:15 AM 7.5 °F -6.9 °F -5.1 °F 56% 30.27 in 10.0 mi South 10.4 mph - N/A   Overcast
9:35 AM 9.3 °F -5.4 °F -4.0 °F 55% 30.28 in 10.0 mi South 11.5 mph - N/A   Overcast
9:55 AM 10.9 °F -3.4 °F -2.4 °F 55% 30.27 in 10.0 mi South 11.5 mph - N/A   Overcast
10:15 AM 12.9 °F -0.9 °F -0.9 °F 54% 30.25 in 10.0 mi South 11.5 mph - N/A   Overcast
10:35 AM 14.7 °F 1.4 °F 0.3 °F 53% 30.24 in 10.0 mi South 11.5 mph 16.1 mph N/A   Overcast
10:55 AM 16.2 °F 3.2 °F 0.9 °F 51% 30.23 in 10.0 mi South 11.5 mph - N/A   Mostly Cloudy
11:15 AM 17.4 °F 8.0 °F 1.6 °F 50% 30.22 in 10.0 mi South 6.9 mph - N/A   Overcast
11:35 AM 18.9 °F 6.5 °F 2.7 °F 49% 30.19 in 10.0 mi South 11.5 mph - N/A   Overcast
11:55 AM 20.3 °F 10.6 °F 3.7 °F 49% 30.18 in 10.0 mi South 8.1 mph - N/A   Scattered Clouds
12:15 PM 21.9 °F 11.7 °F 4.8 °F 48% 30.15 in 10.0 mi South 9.2 mph - N/A   Clear
12:35 PM 23.5 °F 19.1 °F 6.1 °F 47% 30.14 in 10.0 mi South 3.5 mph - N/A   Clear
12:55 PM 25.9 °F 18.2 °F 7.3 °F 46% 30.13 in 10.0 mi South 6.9 mph - N/A   Clear
1:15 PM 28.4 °F 23.3 °F 8.1 °F 42% 30.12 in 10.0 mi South 4.6 mph - N/A   Clear
1:35 PM 29.7 °F 26.1 °F 8.8 °F 42% 30.10 in 10.0 mi SSE 3.5 mph - N/A   Clear
1:55 PM 30.9 °F - 10.0 °F 42% 30.09 in 10.0 mi Calm Calm - N/A   Clear
2:15 PM 33.1 °F 26.1 °F 10.4 °F 39% 30.10 in 10.0 mi WSW 8.1 mph - N/A   Clear
2:35 PM 34.7 °F 28.1 °F 10.2 °F 36% 30.10 in 10.0 mi WSW 8.1 mph - N/A   Clear
2:55 PM 35.1 °F 30.1 °F 10.4 °F 36% 30.10 in 10.0 mi WSW 5.8 mph - N/A   Clear
3:15 PM 35.4 °F 30.5 °F 10.8 °F 36% 30.11 in 10.0 mi SW 5.8 mph - N/A   Clear
3:35 PM 36.1 °F 30.6 °F 11.1 °F 36% 30.12 in 10.0 mi WSW 6.9 mph - N/A   Clear
3:55 PM 36.5 °F 30.3 °F 11.5 °F 36% 30.12 in 10.0 mi WSW 8.1 mph 16.1 mph N/A   Clear
4:15 PM 36.0 °F 29.0 °F 11.8 °F 37% 30.13 in 10.0 mi WSW 9.2 mph - N/A   Clear
4:35 PM 35.2 °F 28.1 °F 12.6 °F 39% 30.13 in 10.0 mi WSW 9.2 mph - N/A   Clear
4:55 PM 34.0 °F 28.0 °F 13.3 °F 43% 30.14 in 10.0 mi WSW 6.9 mph - N/A   Clear
5:15 PM 32.9 °F 25.9 °F 13.8 °F 45% 30.14 in 10.0 mi SW 8.1 mph - N/A   Clear
5:35 PM 32.4 °F 26.9 °F 14.0 °F 47% 30.14 in 10.0 mi SSW 5.8 mph - N/A   Clear
5:55 PM 31.8 °F 28.5 °F 14.0 °F 48% 30.15 in 10.0 mi SW 3.5 mph - N/A   Clear
6:15 PM 30.9 °F 27.5 °F 14.0 °F 50% 30.15 in 10.0 mi SSW 3.5 mph - N/A   Clear
6:35 PM 30.7 °F 26.0 °F 14.2 °F 50% 30.16 in 10.0 mi SSW 4.6 mph - N/A   Clear
6:55 PM 29.8 °F 26.3 °F 14.5 °F 53% 30.16 in 10.0 mi South 3.5 mph - N/A   Clear
7:15 PM 28.6 °F 24.8 °F 14.7 °F 56% 30.17 in 10.0 mi South 3.5 mph - N/A   Clear
7:35 PM 28.6 °F 23.5 °F 14.9 °F 57% 30.17 in 10.0 mi SW 4.6 mph - N/A   Clear
7:55 PM 28.9 °F 25.2 °F 14.9 °F 56% 30.18 in 10.0 mi SSW 3.5 mph - N/A   Clear
8:15 PM 28.8 °F 25.0 °F 15.3 °F 57% 30.18 in 10.0 mi SSW 3.5 mph - N/A   Mostly Cloudy
8:35 PM 28.4 °F - 15.4 °F 58% 30.18 in 10.0 mi Calm Calm - N/A   Overcast
8:55 PM 28.0 °F - 15.6 °F 60% 30.19 in 10.0 mi Calm Calm - N/A   Overcast
9:15 PM 28.0 °F - 15.6 °F 60% 30.19 in 10.0 mi Calm Calm - N/A   Mostly Cloudy
9:35 PM 27.5 °F - 15.8 °F 61% 30.20 in 10.0 mi Calm Calm - N/A   Mostly Cloudy
9:55 PM 27.3 °F - 15.8 °F 62% 30.21 in 10.0 mi Calm Calm - N/A   Mostly Cloudy
10:15 PM 27.0 °F - 15.6 °F 62% 30.21 in 10.0 mi Calm Calm - N/A   Scattered Clouds
10:35 PM 26.8 °F - 15.3 °F 62% 30.21 in 10.0 mi Calm Calm - N/A   Clear
10:55 PM 26.6 °F - 14.9 °F 61% 30.21 in 10.0 mi Calm Calm - N/A   Clear
11:15 PM 25.2 °F - 15.4 °F 67% 30.21 in 10.0 mi Calm Calm - N/A   Clear
11:35 PM 24.6 °F - 16.0 °F 70% 30.21 in 10.0 mi Calm Calm - N/A   Clear
11:55 PM 24.1 °F - 15.8 °F 71% 30.21 in 10.0 mi Calm Calm - N/A   Clear